Home > Weather > Kinshasa > Past weeks

Flag for Congo Dem. Rep. Past Weather in Kinshasa, Congo Dem. Rep. — Yesterday and Last 2 Weeks

Now
73 °F

Mostly cloudy.


Feels Like: 73 °F
Forecast: 72 / 92 °F
Wind: 2 mph from North

Location: Brazzaville / Maya-Maya

Current Time: Jul 1, 2016 at 7:13:59 AM

Latest Report: Jul 1, 2016 at 6:00 AM


Visibility: 4 mi

Pressure: 30.04 "Hg

Humidity: 83%

Dew Point: 68 °F

Location of KinshasaLocation

Past Weather in Kinshasa — Graph

°F

Kinshasa Temperature Yesterday

Maximum temperature yesterday: 82 °F (at 2:00 PM)
Minimum temperature yesterday: 72 °F (at 2:00 AM)
Average temperature yesterday: 76 °F

High & Low Weather Summary for the Past Weeks

 TemperatureHumidityPressure
High88 °F (Jun 18, 3:00 PM)100% (Jun 17, 3:00 AM)30.12 "Hg (Jun 17, 3:00 AM)
Low66 °F (Jun 17, 5:00 AM)40% (Jun 24, 4:00 PM)29.83 "Hg (Jun 24, 3:00 PM)
Average75 °F79%30.00 "Hg
* Reported Jun 16 5:00 AM — Jul 1 5:00 AM, Kinshasa, Weather by CustomWeather, © 2016

Note: Actual official high and low records may vary slightly from our data, if they occured in-between our weather recording intervals... More about our weather records

Advertising

Kinshasa Weather History for the Previous 24 Hours

Scroll right to see more
 ConditionsComfort  
Time TempWeatherWind HumidityBarometerVisibility
5:00 AM
Fri, Jul 1
73 °FPassing clouds.5 mph83%30.04 "Hg4 mi
4:00 AM73 °FPassing clouds.3 mph83%30.01 "Hg4 mi
3:00 AM72 °FClear.5 mph88%30.01 "Hg4 mi
2:00 AM73 °FClear.5 mph83%30.01 "Hg4 mi
1:00 AM73 °FClear.3 mph83%30.04 "Hg4 mi
12:00 AM73 °FClear.5 mph89%30.04 "Hg4 mi
11:00 PM
Thu, Jun 30
73 °FClear.3 mph89%30.04 "Hg4 mi
10:00 PM73 °FClear.2 mph89%30.04 "Hg4 mi
9:00 PM77 °FClear.2 mph79%30.04 "Hg4 mi
8:00 PM77 °FClear.3 mph79%30.01 "Hg4 mi
7:00 PM79 °FClear.5 mph74%29.98 "Hg4 mi
6:00 PM81 °FClear.6 mph70%29.98 "Hg4 mi
5:00 PM82 °FPartly sunny.6 mph66%29.95 "Hg5 mi
4:00 PM82 °FPartly sunny.3 mph66%29.95 "Hg5 mi
3:00 PM82 °FPartly sunny.5 mph66%29.95 "Hg5 mi
2:00 PM82 °FBroken clouds.6 mph66%29.95 "Hg5 mi
1:00 PM81 °FBroken clouds.6 mph70%29.98 "Hg5 mi
12:00 PM79 °FBroken clouds.5 mph74%30.01 "Hg5 mi
11:00 AM77 °FMore clouds than sun.5 mph74%30.04 "Hg5 mi
10:00 AM77 °FPartly sunny.8 mph79%30.07 "Hg4 mi
9:00 AM75 °FPartly sunny.3 mph78%30.07 "Hg4 mi
8:00 AM73 °FFog.3 mph83%30.07 "Hg2 mi
7:00 AM72 °FPassing clouds.2 mph94%30.04 "Hg4 mi
Weather by CustomWeather, © 2016

See weather overviewHow to use our weather pages